Regional Weather Roundup
Issued by NWS

Home | Current Version | Previous Version | Text Only | Print | Product List | Glossary Off
Versions: 1 2 3 4 5 6 7 8 9 10 11 12 13 14 15 16 17 18 19 20 21 22 23 24 25 26 27 28 29 30 31 32 33 34 35 36 37 38 39 40 41 42 43 44 45 46 47 48 49 50

000
ASUS43 KMKX 250600
RWRWI

WISCONSIN REGIONAL WEATHER ROUNDUP
NATIONAL WEATHER SERVICE MILWAUKEE/SULLIVAN WI
100 AM CDT FRI APR 25 2014

NOTE: "FAIR" INDICATES FEW OR NO CLOUDS BELOW 12,000 FEET WITH NO
SIGNIFICANT WEATHER AND/OR OBSTRUCTIONS TO VISIBILITY.

WIZ001-002-006>008-014>016-023>028-250700-
NORTHWEST WISCONSIN

CITY           SKY/WX    TMP DP  RH WIND       PRES   REMARKS
SUPERIOR ARPT  CLOUDY    32  32 100 NE5       29.69F WCI  27
ASHLAND        CLOUDY    35  35 100 CALM      29.66F FOG
6HR MIN TEMP:  33; 6HR MAX TEMP:  35; 6HR PCP:  0.10;

HAYWARD        CLOUDY    37  37 100 VRB7      29.68R WCI  32
6HR MIN TEMP:  36; 6HR MAX TEMP:  39; 6HR PCP:  0.03;

SIREN          CLOUDY    37  37  99 CALM      29.70S
RICE LAKE      CLOUDY    40  37  89 W5        29.71S
LADYSMITH      CLOUDY    42  41  98 SW5       29.70S FOG
EAU CLAIRE     NOT AVBL
MENOMONIE      CLOUDY    42  38  85 W8        29.72S
NEW RICHMOND   FAIR      38  37  97 W5        29.72S WCI  34
OSCEOLA        FAIR      37  37 100 SW5       29.74S WCI  33
$$

WIZ003>005-009-010-017-018-250700-
NORTH CENTRAL WISCONSIN

CITY           SKY/WX    TMP DP  RH WIND       PRES   REMARKS
WOODRUFF       DRIZZLE   37  35  93 SE7       29.69S WCI  31
RHINELANDER    CLOUDY    36  34  92 SE5       29.69F FOG     WCI  32
6HR MIN TEMP:  34; 6HR MAX TEMP:  36; 6HR PCP:  0.11;

EAGLE RIVER    RAIN      34  34 100 SE6       29.69S WCI  29
LAND O LAKES   LGT SNOW  34  33  97 SE6       29.70F WCI  29
PHILLIPS       DRIZZLE   37  37  98 S7        29.67S WCI  32
TOMAHAWK       CLOUDY    37  35  95 CALM      29.69S FOG
MEDFORD        DRIZZLE   38  38  99 S6        29.68S WCI  34
MERRILL        DRIZZLE   37  37 100 CALM      29.70R
$$

WIZ029-030-035-036-043>047-250700-
CENTRAL WISCONSIN

CITY           SKY/WX    TMP DP  RH WIND       PRES   REMARKS
WAUSAU         CLOUDY    38  38 100 S3        29.69R FOG
6HR MIN TEMP:  38; 6HR MAX TEMP:  40; 6HR PCP:  0.13;

MOSINEE        DRIZZLE   37  37 100 CALM      29.70S
MARSHFIELD     CLOUDY    42  39  89 NW7       29.69R FOG
6HR MIN TEMP:  41; 6HR MAX TEMP:  42; 6HR PCP: TRACE;

STEVENS POINT  DRIZZLE   38  37  97 CALM      29.69F
WAUPACA        LGT RAIN  45  39  81 SE7       29.69R
WAUTOMA        LGT RAIN  43  41  93 CALM      29.70R FOG
WISC RAPIDS    CLOUDY    41  40  96 CALM      29.71R FOG
6HR MIN TEMP:  41; 6HR MAX TEMP:  43; 6HR PCP:  0.13;

CAMP DOUGLAS   CLOUDY    45  45 100 NW13G21   29.71R
$$

WIZ011>013-019>022-031-037>040-048>050-250700-
NORTHEAST WISCONSIN

CITY           SKY/WX    TMP DP  RH WIND       PRES   REMARKS
ANTIGO         LGT RAIN  36  35  96 SE10      29.69R WCI  28
STURGEON BAY   CLOUDY    39  34  81 SE13G20   29.73F WCI  32
6HR MIN TEMP:  39; 6HR MAX TEMP:  41; 6HR PCP:  0.07;

GREEN BAY      CLOUDY    43  35  73 SE12      29.71F
6HR MIN TEMP:  40; 6HR MAX TEMP:  43; 6HR PCP:  0.11;

MANITOWOC      NOT AVBL
APPLETON       CLOUDY    41  34  75 SE15      29.69S
CLINTONVILLE   CLOUDY    41  37  87 SE8       29.69S
OSHKOSH        LGT RAIN  44  37  76 SE7       29.68S
6HR MIN TEMP:  44; 6HR MAX TEMP:  47; 6HR PCP:  0.10;

$$

WIZ032>034-041-042-053>061-250700-
SOUTHWEST WISCONSIN

CITY           SKY/WX    TMP DP  RH WIND       PRES   REMARKS
LA CROSSE      CLOUDY    45  40  82 NW7       29.74R
6HR MIN TEMP:  45; 6HR MAX TEMP:  47;

SPARTA         CLOUDY    44  41  90 W8        29.74R
VIROQUA        CLOUDY    43  42  97 NW14      29.71S
BOSCOBEL       MOCLDY    48  41  76 NW10      29.73R
6HR MIN TEMP:  48; 6HR MAX TEMP:  52; 6HR PCP:  0.12;

PRAIRIE DU CHI CLOUDY    46  41  82 NW9       29.73S
PLATTEVILLE    MOCLDY    47  44  88 NW13      29.71S
$$

WIZ056-057-062-063-064-067-068-250700-
SOUTH CENTRAL WISCONSIN

CITY           SKY/WX    TMP DP  RH WIND       PRES   REMARKS
BARABOO/DELLS  CLOUDY    46  44  96 NW9G16    29.69R FOG
LONE ROCK      NOT AVBL
WATERTOWN      CLOUDY    44  40  85 W5        29.69R
MADISON        LGT RAIN  50  48  93 SW3       29.68S FOG
6HR MIN TEMP:  48; 6HR MAX TEMP:  51; 6HR PCP:  0.18;

MIDDLETON      CLOUDY    52  50  95 W8        29.68S
MONROE         DRIZZLE   50  50 100 CALM      29.67S
JANESVILLE     CLOUDY    50  45  81 CALM      29.67R
$$

WIZ051-052-058>065-066-070>072-250700-
SOUTHEAST WISCONSIN

CITY           SKY/WX    TMP DP  RH WIND       PRES   REMARKS
MILWAUKEE      RAIN      42  37  82 SE8       29.71S
6HR MIN TEMP:  42; 6HR MAX TEMP:  50; 6HR PCP:  0.08;

WAUKESHA       RAIN      43  37  81 E6        29.70F
MILWAUKEE/TIMM LGT RAIN  43  36  75 CALM      29.72S
RACINE         LGT RAIN  45  37  73 SE7       29.72R
6HR MIN TEMP:  44; 6HR MAX TEMP:  48; 6HR PCP:  0.08;

BURLINGTON     RAIN      43  41  92 MISG      29.69S
KENOSHA        LGT RAIN  45  38  76 SE5       29.70R
6HR MIN TEMP:  45; 6HR MAX TEMP:  49; 6HR PCP:  0.08;

FOND DU LAC    CLOUDY    44  37  76 S7        29.70R
6HR MIN TEMP:  44; 6HR MAX TEMP:  48; 6HR PCP:  0.08;

SHEBOYGAN      LGT RAIN  40  33  76 SE12      29.70F WCI  33
6HR MIN TEMP:  40; 6HR MAX TEMP:  49; 6HR PCP:  0.08;

WEST BEND      LGT RAIN  39  34  81 SE9       29.68F WCI  33
JUNEAU         CLOUDY    45  37  73 S8        29.70R
$$

LSZ147-162-250700-
LAKE SUPERIOR

STATION/POSITION TIME  TEMP    WIND        PRES    WAVE
                       AIR SEA DIR/SP/G            HT/PER
                 (UTC) (F)     (DEG/KT/KT) (MB)    (FT/S)
DEVILS ISLAND    0500   33     100/ 18/ 21 1006.1F
PORT WING        0500   33      20/  6/  8 1005.4
SAXON HARBOR     0500           CALM  /  5 1005.1F
$$

LMZ867-665-643>646-250700-
LAKE MICHIGAN

STATION/POSITION TIME  TEMP    WIND        PRES    WAVE
                       AIR SEA DIR/SP/G            HT/PER
                 (UTC) (F)     (DEG/KT/KT) (MB)    (FT/S)
NORTHPORT PIER   0500   38     100/ 16/ 21 1009.5F
SISTER BAY       0523   40     130/  8/ 11   N/A
KEWAUNEE LAKESHO 0500   40     110/ 11/ 14 1008.1F
SHEBOYGAN LAKESH 0500   40     140/  8/ 10 1007.3F
PORT WASHINGTON  0540   40     190/  1/  3 1007.1F
MILWAUKEE LAKESH 0500   42     130/  3/  5   N/A
KENOSHA   LAKESH 0500   43     150/  8/ 11   N/A
$$

TC  - TEMPERATURE IN CELSIUS
VSB - VISIBILITY IN STATUTE MILES
WCI - WIND CHILL INDEX
HX  - HEAT INDEX




USA.gov is the U.S. government's official web portal to all federal, state and local government web resources and services.